Tracking 31027 objects as of 19-Jul-2025
HD Live streaming from Space Station
objects crossing your sky now

THORAD AGENA D DEB

Track THORAD AGENA D DEB now!
10-day predictions


NORAD ID: 19422
Int'l Code: 1970-025QA
Perigee: 1,011.0 km
Apogee: 1,028.0 km
Inclination: 100.1 °
Period: 105.4 minutes
Semi major axis: 7390 km
RCS: 0.0088 m2 (small)
Launch date: April 8, 1970
Source: United States (US)
Launch site: AIR FORCE WESTERN TEST RANGE (AFWTR)

Note: This is SATELLITE DEBRIS
Your satellite tracking list
KORSAT 7
Track 1 satellite(s)




NASA's NSSDC Master Catalog

Two Line Element Set (TLE):
1 19422U 70025QA  25199.64408072  .00000302  00000-0  42243-3 0  9992
2 19422 100.1200 247.3135 0011553  57.5148  94.8813 13.66443708  1066
Source of the keplerian elements: AFSPC